Weather History for KFTW - February, 2012

Change the Weather History Date:

Sunday, February 12, 2012

  Actual Average Record
Temperature  
Mean Temperature 32 °F -  
Max Temperature 39 °F 58 °F 72 °F (2009)
Min Temperature 26 °F 37 °F 24 °F (2006)
Degree Days  
Heating Degree Days 32    
Moisture  
Dew Point 24 °F    
Average Humidity 74    
Maximum Humidity 96    
Minimum Humidity 42    
Precipitation  
Precipitation 0.08 in - - ()
Sea Level Pressure  
Sea Level Pressure 30.38 in    
Wind  
Wind Speed 8 mph (SE)    
Max Wind Speed 15 mph    
Max Gust Speed -    
Visibility 8 miles    
Events Rain , Snow    
Averages and records for this station are not official NWS values.
T = Trace of Precipitation, MM = Missing Value Source: NWS Daily Summary

Daily Weather History Graph

Daily Weather History Graph

Search for Another Location

Airport or City:

Trip Planner

Search our weather history database for the weather conditions in past years. The results will help you decide how hot, cold, wet, or windy it might be!

Date:

Astronomy

Feb. 12, 2012 Rise Set
Actual Time 7:15 AM CST 6:11 PM CST
Civil Twilight 6:50 AM CST 6:37 PM CST
Nautical Twilight 6:21 AM CST 7:06 PM CST
Astronomical Twilight 5:52 AM CST 7:35 PM CST
Moon 11:47 PM CST (2/12) 9:57 AM CST (2/12)
Length of Visible Light 11h 46m
Length of Day
10h 55m
Waning Gibbous, 72% of the Moon is Illuminated
Feb 12
Waning Gibbous
Feb 14
Last Quarter
Feb 21
New
Feb 29
First Quarter
Mar 8
Full

Hourly Weather History & Observations

Time (CST) Temp. Windchill Dew Point Humidity Pressure Visibility Wind Dir Wind Speed Gust Speed Precip Events Conditions
12:53 AM 28.0 °F 20.0 °F 12.0 °F 51% 30.64 in 10.0 mi NE 8.1 mph - N/A   Overcast
1:53 AM 28.0 °F 19.3 °F 12.0 °F 51% 30.63 in 10.0 mi NNE 9.2 mph - N/A   Overcast
2:53 AM 28.0 °F 19.3 °F 12.9 °F 53% 30.61 in 10.0 mi NNE 9.2 mph - N/A   Overcast
3:53 AM 27.0 °F 21.6 °F 16.0 °F 63% 30.59 in 10.0 mi NNE 4.6 mph - N/A   Clear
4:53 AM 26.1 °F 21.9 °F 15.1 °F 63% 30.58 in 10.0 mi NE 3.5 mph - N/A   Clear
5:53 AM 27.0 °F 21.6 °F 12.9 °F 56% 30.58 in 10.0 mi ENE 4.6 mph - N/A   Mostly Cloudy
6:53 AM 26.1 °F - 15.1 °F 63% 30.58 in 10.0 mi Calm Calm - N/A   Clear
7:53 AM 28.0 °F 21.7 °F 14.0 °F 56% 30.59 in 10.0 mi East 5.8 mph - N/A   Partly Cloudy
8:53 AM 28.9 °F 21.1 °F 14.0 °F 54% 30.59 in 10.0 mi East 8.1 mph - N/A   Scattered Clouds
9:53 AM 32.0 °F 23.6 °F 15.1 °F 50% 30.57 in 10.0 mi SE 10.4 mph - N/A   Clear
10:53 AM 35.1 °F 25.5 °F 14.0 °F 42% 30.54 in 10.0 mi SSE 15.0 mph - N/A   Mostly Cloudy
11:53 AM - - - N/A% 30.50 in - North - - N/A   Unknown
12:53 PM - - - N/A% 30.45 in - North - - N/A   Unknown
1:53 PM - - - N/A% 30.41 in 10.0 mi SE 10.4 mph - N/A   Mostly Cloudy
2:53 PM - - - N/A% 30.37 in 10.0 mi SSE 11.5 mph - N/A   Mostly Cloudy
3:53 PM - - - N/A% 30.34 in 10.0 mi SSE 11.5 mph - N/A   Mostly Cloudy
4:53 PM - - - N/A% 30.32 in - North - - N/A   Unknown
5:53 PM 39.0 °F 31.8 °F 18.0 °F 43% 30.30 in 10.0 mi SSE 11.5 mph - N/A   Overcast
6:53 PM 37.0 °F 28.1 °F 21.9 °F 54% 30.29 in 9.0 mi SE 15.0 mph - 0.00 in Snow Light Snow
7:11 PM 35.6 °F 27.5 °F 24.8 °F 65% 30.27 in 10.0 mi SE 11.5 mph - 0.00 in Rain Light Freezing Rain
7:36 PM 35.6 °F 27.1 °F 26.6 °F 70% 30.27 in 8.0 mi ESE 12.7 mph - 0.00 in Rain Rain
7:53 PM 34.0 °F 26.6 °F 28.0 °F 79% 30.28 in 8.0 mi ESE 9.2 mph - 0.01 in Rain Light Freezing Rain
8:00 PM 33.8 °F 25.3 °F 28.4 °F 81% 30.27 in 8.0 mi SE 11.5 mph - 0.00 in Rain Light Freezing Rain
8:09 PM 33.8 °F 24.8 °F 28.4 °F 81% 30.27 in 5.0 mi SE 12.7 mph - 0.00 in Snow Light Snow
8:29 PM 33.8 °F 27.7 °F 30.2 °F 87% 30.28 in 2.0 mi SSE 6.9 mph - 0.01 in Snow Light Snow
8:40 PM 32.0 °F 26.4 °F 30.2 °F 93% 30.28 in 1.8 mi SSE 5.8 mph - 0.01 in Snow Light Snow
8:53 PM 32.0 °F 25.6 °F 30.9 °F 96% 30.30 in 2.5 mi South 6.9 mph - 0.01 in Snow Light Snow
9:00 PM 32.0 °F 24.8 °F 30.2 °F 93% 30.28 in 3.0 mi South 8.1 mph - 0.00 in Snow Light Snow
9:09 PM 32.0 °F 25.6 °F 30.2 °F 93% 30.27 in 2.5 mi SSE 6.9 mph - 0.00 in Snow Light Snow
9:53 PM 32.0 °F 24.2 °F 30.9 °F 96% 30.28 in 2.5 mi SSE 9.2 mph - 0.02 in   Overcast
10:00 PM 32.0 °F 25.6 °F 30.2 °F 93% 30.26 in 4.0 mi South 6.9 mph - 0.00 in Snow Light Snow
10:16 PM 32.0 °F 23.6 °F 30.2 °F 93% 30.26 in 4.0 mi SSE 10.4 mph - 0.01 in   Overcast
10:20 PM 32.0 °F 24.2 °F 30.2 °F 93% 30.25 in 4.0 mi SSE 9.2 mph - 0.01 in Rain Light Freezing Rain
10:27 PM 33.8 °F 26.4 °F 30.2 °F 87% 30.25 in 4.0 mi SSE 9.2 mph - 0.01 in Rain Light Freezing Rain
10:48 PM 33.8 °F 26.4 °F 32.0 °F 93% 30.23 in 7.0 mi SE 9.2 mph - 0.02 in   Overcast
10:53 PM 33.1 °F 26.9 °F 30.9 °F 92% 30.25 in 8.0 mi SSE 6.9 mph - 0.03 in Rain Light Freezing Rain
11:24 PM 33.8 °F 30.8 °F 32.0 °F 93% 30.22 in 10.0 mi ESE 3.5 mph - 0.01 in   Overcast
11:53 PM 33.1 °F - 32.0 °F 96% 30.23 in 10.0 mi Calm Calm - 0.01 in   Overcast